Regional Weather Roundup
Issued by NWS

Home | Current Version | Previous Version | Text Only | Print | Product List | Glossary On
Versions: 1 2 3 4 5 6 7 8 9 10 11 12 13 14 15 16 17 18 19 20 21 22 23 24 25 26 27 28 29 30 31 32 33 34 35 36 37 38 39 40 41 42 43 44 45 46 47 48 49 50
000
ASUS45 KREV 301210
RWRNV
NEVADA REGIONAL WEATHER ROUNDUP
NATIONAL WEATHER SERVICE RENO NV
500 AM PDT SAT AUG 30 2014

NOTE: "FAIR" INDICATES FEW OR NO CLOUDS BELOW 12,000 FEET WITH NO
SIGNIFICANT WEATHER AND/OR OBSTRUCTIONS TO VISIBILITY.

NVZ001-003-004-301300-
WESTERN NEVADA

CITY           SKY/WX    TMP DP  RH WIND       PRES   REMARKS
RENO           MOCLDY    65  38  36 CALM      30.02F
6HR MIN TEMP:  64; 6HR MAX TEMP:  75;

CARSON CITY    FAIR      73  32  21 SW9       30.05S
MINDEN           N/A     72  28  20 W13       30.06
SLIDE MTN        N/A     50  27  40 W30         N/A
PYRAMID LAKE     N/A     70 N/A N/A SW2         N/A
FALLON         CLOUDY    64  32  30 CALM      29.98F
6HR MIN TEMP:  63; 6HR MAX TEMP:  74;

LOVELOCK       PTCLDY    57  34  41 CALM      29.98F
6HR MIN TEMP:  53; 6HR MAX TEMP:  78;

HAWTHORNE      CLEAR     72  34  25 CALM      29.99F
$$

NVZ002-CAZ072-073-301300-
NORTHERN AND CENTRAL SIERRA

CITY           SKY/WX    TMP DP  RH WIND       PRES   REMARKS
S. LAKE TAHOE  MOCLDY    61  31  32 VRB5      30.16S
6HR MIN TEMP:  61; 6HR MAX TEMP:  68;

TRUCKEE        PTCLDY    50  34  53 NW3       30.13F
SQUAW VLY 8000 NOT AVBL
SUSANVILLE     CLEAR     52  37  58 CALM      30.04R
BLUE CANYON    PTCLDY    64  29  26 SE6       30.11F
MAMMOTH LAKES  FAIR      63  25  23 SE6       30.20F
BRIDGEPORT     FAIR      58  26  29 CALM      30.18S
$$

NVZ030-031-036-301300-
NORTHERN NEVADA

CITY           SKY/WX    TMP DP  RH WIND       PRES   REMARKS
ELKO           PTCLDY    57  35  43 CALM      30.01R
6HR MIN TEMP:  53; 6HR MAX TEMP:  67;

WINNEMUCCA     CLEAR     60  35  39 NW5       30.00R
6HR MIN TEMP:  60; 6HR MAX TEMP:  75;

WENDOVER       MOCLDY    72  36  26 NW9       29.91S
$$

NVZ035-037-301300-
CENTRAL NEVADA

CITY           SKY/WX    TMP DP  RH WIND       PRES   REMARKS
ELY            CLOUDY    59  35  40 SW7       30.09F
6HR MIN TEMP:  54; 6HR MAX TEMP:  62;

EUREKA           N/A     66  28  24 SW13      30.07S
6HR MIN TEMP:  59; 6HR MAX TEMP:  66;

$$

NVZ013-014-301300-
SOUTH CENTRAL NEVADA

CITY           SKY/WX    TMP DP  RH WIND       PRES   REMARKS
TONOPAH        MOCLDY    61  25  25 N8        30.06F
6HR MIN TEMP:  60; 6HR MAX TEMP:  75;

$$

NVZ017-020-022-301300-
SOUTHERN NEVADA

CITY           SKY/WX    TMP DP  RH WIND       PRES   REMARKS
LAS VEGAS      PTCLDY    82  31  15 S7        29.78R
6HR MIN TEMP:  82; 6HR MAX TEMP:  92;

N. LAS VEGAS   PTCLDY    76  37  24 NW3       29.81R
6HR MIN TEMP:  76; 6HR MAX TEMP:  88;

NELLIS AFB     CLEAR     76  35  22 E6        29.80R
6HR MIN TEMP:  76; 6HR MAX TEMP:  91;

HENDERSON      PTCLDY    82  31  16 S13       29.85R
6HR MIN TEMP:  81; 6HR MAX TEMP:  88;

MERCURY        CLEAR     69  28  21 CALM      29.89R
6HR MIN TEMP:  66; 6HR MAX TEMP:  81;

$$


USA.gov is the U.S. government's official web portal to all federal, state and local government web resources and services.